sat.trackr.live / text

‹ back to catalog

LEMUR-2-LUCILLE-ROSE

NORAD 65403 · 2025-135BV

PAYLOAD ACTIVE UNKNOWN

§ Identity

Operator
Country
US
Launch date
2025-06-23
Launch site
AFWTR
Launch vehicle
Mass (kg)
RCS (m²)

Purposes: earth_obs

External: N2YO · Heavens-Above · Gunter

§ Orbital elements

Epoch: 2026-09-19T13:43:32.455488Z

Period
95.92 min
Inclination
97.7637°
Eccentricity
0.0012121
Mean motion
15.01275852 rev/d
Perigee alt
554.5 km
Apogee alt
571.4 km
Semi-major
6,941.1 km
B*
3.2666e-4
RAAN
18.7307°
Arg perigee
337.4461°
Mean anomaly
22.6229°
Rev number
6,279

§ Raw data

LEMUR-2-LUCILLE-ROSE1 65403U 25135BV  26262.57190342  .00004145  00000+0  32666-3 0  99922 65403  97.7637  18.7307 0012121 337.4461  22.6229 15.01275852 62793

JSON: /api/v1/satellites/65403 · /tle

For live sub-satellite position, see the globe view (requires WebGL).

§ Visibility from observer

Set your observer location to see the next 7 days of passes ≥ 10°. The values pass through the URL so the page stays shareable.

No JS? Fill the form by hand. The geolocation button needs JavaScript.